Toronto Pearson, Ontario

9:35 PM EDT on September 29, 2016 (GMT -0400)
Toronto-Pearson International

Weather History for CYYZ - January, 2014

Change the Weather History Date:

Thursday, January 23, 2014

  Actual Average Record
Temperature  
Mean Temperature 3 °F -  
Max Temperature 6 °F 25 °F 48 °F (1999)
Min Temperature 0 °F 11 °F -5 °F (2005)
Degree Days  
Heating Degree Days 62    
Moisture  
Dew Point -5 °F    
Average Humidity 68    
Maximum Humidity 85    
Minimum Humidity 44    
Precipitation  
Precipitation 0.01 in - - ()
Sea Level Pressure  
Sea Level Pressure 30.22 in    
Wind  
Wind Speed 8 mph ()    
Max Wind Speed 16 mph    
Max Gust Speed 20 mph    
Visibility 12.4 miles    
Events Snow    
Averages and records for this station are not official NWS values.
T = Trace of Precipitation, MM = Missing Value Source: Averaged Metar Reports

Daily Weather History Graph

Daily Weather History Graph

Search for Another Location

Airport or City:

Trip Planner

Search our weather history database for the weather conditions in past years. The results will help you decide how hot, cold, wet, or windy it might be!

Date:

Astronomy

Jan. 23, 2014 Rise Set
Actual Time 7:43 AM EST 5:17 PM EST
Civil Twilight 7:12 AM EST 5:48 PM EST
Nautical Twilight 6:37 AM EST 6:23 PM EST
Astronomical Twilight 6:03 AM EST 6:57 PM EST
Moon 12:01 AM EST (1/23) 11:03 AM EST (1/23)
Length of Visible Light 10h 36m
Length of Day
9h 33m
Waning Gibbous, 55% of the Moon is Illuminated
Jan 23
Waning Gibbous
Jan 24
Last Quarter
Jan 30
New
Feb 6
First Quarter
Feb 14
Full

Hourly Weather History & Observations

Time (EST) Temp. Windchill Dew Point Humidity Pressure Visibility Wind Dir Wind Speed Gust Speed Precip Events Conditions
12:00 AM 6.8 °F -0.1 °F 1.4 °F 79% 30.07 in 10.0 mi NNW 3.5 mph - N/A Snow Light Snow Showers
1:00 AM 6 °F - 2 °F 73% 30.06 in 6 mi NW 3.5 mph - - Snow Light Snow Showers
1:00 AM 6.8 °F -2.0 °F 1.4 °F 79% 30.06 in 6.0 mi NW 4.6 mph - N/A Snow Light Snow Showers
2:00 AM 5.0 °F -4.1 °F 1.4 °F 85% 30.06 in 6.0 mi North 4.6 mph - N/A Snow Light Snow
3:00 AM 5.0 °F -8.1 °F -0.4 °F 78% 30.08 in 6.0 mi North 8.1 mph - N/A Snow Light Snow
4:00 AM 3.2 °F -11.3 °F -2.2 °F 78% 30.08 in 6.0 mi North 9.2 mph - N/A   Ice Pellets
5:00 AM 1.4 °F -9.9 °F -4.0 °F 78% 30.10 in 10.0 mi North 5.8 mph - N/A Snow Light Snow
5:39 AM 1.4 °F -8.3 °F -4.0 °F 78% 30.12 in 12.0 mi North 4.6 mph - N/A   Mostly Cloudy
6:00 AM 1.4 °F -13.5 °F -4.0 °F 78% 30.12 in 12.0 mi NNW 9.2 mph - N/A   Mostly Cloudy
6:07 AM 1.4 °F -14.5 °F -4.0 °F 78% 30.13 in 8.0 mi NNW 10.4 mph - N/A Snow Light Snow
7:00 AM 0 °F - -5 °F 69% 30.15 in 10 mi North 9.2 mph - - Snow Light Snow
7:00 AM 1.4 °F -13.5 °F -5.8 °F 72% 30.15 in 10.0 mi North 9.2 mph - N/A Snow Light Snow
7:43 AM -0.4 °F -19.2 °F -5.8 °F 78% 30.17 in 12.0 mi North 13.8 mph - N/A   Mostly Cloudy
8:00 AM -0.4 °F -18.4 °F -5.8 °F 78% 30.18 in 15.0 mi North 12.7 mph - N/A   Mostly Cloudy
9:00 AM -0.4 °F -18.4 °F -7.6 °F 72% 30.19 in 15.0 mi North 12.7 mph - N/A   Mostly Cloudy
10:00 AM 1.4 °F -15.3 °F -7.6 °F 66% 30.22 in 15.0 mi North 11.5 mph - N/A   Mostly Cloudy
11:00 AM 3.2 °F -13.1 °F -5.8 °F 66% 30.25 in 15.0 mi North 11.5 mph - N/A   Mostly Cloudy
12:00 PM 3.2 °F -14.6 °F -5.8 °F 66% 30.25 in 15.0 mi NNW 13.8 mph - N/A   Mostly Cloudy
1:00 PM 4 °F - -7 °F 44% 30.25 in 15 mi NNW 12.7 mph - -   Partly Cloudy
1:00 PM 5.0 °F -11.6 °F -7.6 °F 56% 30.25 in 15.0 mi NNW 12.7 mph 19.6 mph N/A   Mostly Cloudy
2:00 PM 5.0 °F -11.6 °F -7.6 °F 56% 30.26 in 15.0 mi North 12.7 mph 18.4 mph N/A   Mostly Cloudy
3:00 PM 6.8 °F -7.8 °F -5.8 °F 56% 30.28 in 15.0 mi North 10.4 mph - N/A   Mostly Cloudy
4:00 PM 6.8 °F -8.6 °F -5.8 °F 56% 30.31 in 15.0 mi NNW 11.5 mph - N/A   Mostly Cloudy
5:00 PM 6.8 °F -6.9 °F -5.8 °F 56% 30.33 in 15.0 mi NNW 9.2 mph - N/A   Mostly Cloudy
6:00 PM 3.2 °F -13.1 °F -5.8 °F 66% 30.36 in 15.0 mi North 11.5 mph - N/A   Mostly Cloudy
7:00 PM 2 °F - -8 °F 48% 30.40 in 15 mi NW 15.0 mph - -   Mostly Cloudy
7:00 PM 3.2 °F -15.3 °F -7.6 °F 61% 30.40 in 15.0 mi NW 15.0 mph - N/A   Mostly Cloudy
8:00 PM 1.4 °F -18.2 °F -9.4 °F 61% 30.41 in 15.0 mi NW 16.1 mph - N/A   Scattered Clouds
9:00 PM 1.4 °F -15.3 °F -9.4 °F 61% 30.40 in 15.0 mi WNW 11.5 mph - N/A   Partly Cloudy
10:00 PM -0.4 °F -15.7 °F -11.2 °F 60% 30.40 in 15.0 mi NW 9.2 mph - N/A   Partly Cloudy
11:00 PM -0.4 °F -15.7 °F -9.4 °F 66% 30.41 in 15.0 mi West 9.2 mph - N/A   Partly Cloudy